{"data":{"norad_id":41886,"epoch":"2026-09-20T05:05:59.758944Z","epoch_age_seconds":39201,"freshness":"FRESH","line1":"1 41886U 16078C   26263.21249721  .00039319  00000+0  28938-3 0  9993","line2":"2 41886  34.9398 302.7970 0003643  60.3577 299.7515 15.71947592544097","mean_motion":15.71947592,"eccentricity":0.0003643,"inclination_deg":34.9398,"raan_deg":302.797,"arg_perigee_deg":60.3577,"mean_anomaly_deg":299.7515,"bstar":0.00028938,"rev_number":54409,"period_min":91.606107438218,"perigee_km":350.87894141069,"apogee_km":355.78348915234,"semimajor_km":6731.4682152815,"source":"CELESTRAK","updated_at":"2026-09-20T09:00:33.218454Z"}}